TimeEDT,TemperatureF,Dew PointF,Humidity,Sea Level PressureIn,VisibilityMPH,Wind Direction,Wind SpeedMPH,Gust SpeedMPH,PrecipitationIn,Events,Conditions,WindDirDegrees,DateUTC
12:15 AM,62.6,57.2,82,30.14,10.0,SSE,3.5,-,N/A,,Clear,160,2013-04-09 04:15:00
12:35 AM,60.8,57.2,88,30.13,10.0,SSE,3.5,-,N/A,,Clear,150,2013-04-09 04:35:00
12:55 AM,59.0,57.2,94,30.13,10.0,SSE,3.5,-,N/A,,Clear,160,2013-04-09 04:55:00
1:15 AM,59.0,57.2,94,30.13,10.0,SSE,3.5,-,N/A,,Clear,160,2013-04-09 05:15:00
1:35 AM,60.8,57.2,88,30.13,10.0,SSE,3.5,-,N/A,,Clear,150,2013-04-09 05:35:00
1:55 AM,59.0,57.2,94,30.13,10.0,South,3.5,-,N/A,,Clear,170,2013-04-09 05:55:00
2:15 AM,59.0,57.2,94,30.13,10.0,South,3.5,-,N/A,,Clear,170,2013-04-09 06:15:00
2:35 AM,59.0,57.2,94,30.13,10.0,South,3.5,-,N/A,,Clear,180,2013-04-09 06:35:00
2:55 AM,59.0,59.0,100,30.12,10.0,Calm,Calm,-,N/A,,Clear,0,2013-04-09 06:55:00
3:15 AM,59.0,59.0,100,30.12,10.0,Calm,Calm,-,N/A,,Clear,0,2013-04-09 07:15:00
3:35 AM,57.2,57.2,100,30.13,10.0,Calm,Calm,-,N/A,,Clear,0,2013-04-09 07:35:00
3:55 AM,55.4,55.4,100,30.13,8.0,Calm,Calm,-,N/A,,Clear,0,2013-04-09 07:55:00
4:15 AM,53.6,53.6,100,30.14,7.0,Calm,Calm,-,N/A,,Clear,0,2013-04-09 08:15:00
4:35 AM,53.6,53.6,100,30.14,5.0,Calm,Calm,-,N/A,,Clear,0,2013-04-09 08:35:00
4:55 AM,53.6,53.6,100,30.14,8.0,Calm,Calm,-,N/A,,Clear,0,2013-04-09 08:55:00
5:15 AM,53.6,53.6,100,30.15,5.0,Calm,Calm,-,N/A,,Clear,0,2013-04-09 09:15:00
5:35 AM,51.8,51.8,100,30.15,5.0,Calm,Calm,-,N/A,,Clear,0,2013-04-09 09:35:00
5:55 AM,51.8,51.8,100,30.16,4.0,Calm,Calm,-,N/A,,Clear,0,2013-04-09 09:55:00
6:15 AM,51.8,51.8,100,30.17,2.5,Calm,Calm,-,N/A,,Clear,0,2013-04-09 10:15:00
6:35 AM,50.0,50.0,100,30.18,6.0,Calm,Calm,-,N/A,,Clear,0,2013-04-09 10:35:00
6:55 AM,50.0,50.0,100,30.19,5.0,Calm,Calm,-,N/A,,Clear,0,2013-04-09 10:55:00
7:15 AM,50.0,50.0,100,30.19,6.0,Calm,Calm,-,N/A,,Clear,0,2013-04-09 11:15:00
7:35 AM,50.0,50.0,100,30.20,5.0,Calm,Calm,-,N/A,,Clear,0,2013-04-09 11:35:00
7:55 AM,50.0,50.0,100,30.21,7.0,Calm,Calm,-,N/A,,Clear,0,2013-04-09 11:55:00
8:15 AM,53.6,53.6,100,30.21,8.0,Calm,Calm,-,N/A,,Clear,0,2013-04-09 12:15:00
8:35 AM,55.4,55.4,100,30.21,9.0,Calm,Calm,-,N/A,,Clear,0,2013-04-09 12:35:00
8:55 AM,60.8,60.8,100,30.21,10.0,Calm,Calm,-,N/A,,Clear,0,2013-04-09 12:55:00
9:15 AM,64.4,62.6,94,30.22,10.0,South,3.5,-,N/A,,Clear,190,2013-04-09 13:15:00
9:35 AM,66.2,62.6,88,30.22,10.0,WSW,6.9,-,N/A,,Clear,240,2013-04-09 13:35:00
9:55 AM,66.2,62.6,88,30.22,10.0,WSW,6.9,-,N/A,,Clear,240,2013-04-09 13:55:00
10:15 AM,68.0,60.8,78,30.22,10.0,WSW,5.8,-,N/A,,Clear,240,2013-04-09 14:15:00
10:35 AM,69.8,62.6,78,30.22,10.0,Calm,Calm,-,N/A,,Clear,0,2013-04-09 14:35:00
10:55 AM,71.6,62.6,73,30.22,10.0,SSW,4.6,-,N/A,,Clear,210,2013-04-09 14:55:00
11:15 AM,71.6,62.6,73,30.22,10.0,WSW,3.5,-,N/A,,Clear,250,2013-04-09 15:15:00
11:35 AM,73.4,60.8,65,30.22,10.0,SE,3.5,-,N/A,,Clear,130,2013-04-09 15:35:00
11:55 AM,75.2,62.6,65,30.22,10.0,SSW,5.8,-,N/A,,Clear,210,2013-04-09 15:55:00
12:15 PM,77.0,60.8,57,30.21,10.0,Calm,Calm,-,N/A,,Clear,0,2013-04-09 16:15:00
12:35 PM,78.8,60.8,54,30.20,10.0,SSW,5.8,-,N/A,,Clear,200,2013-04-09 16:35:00
12:55 PM,80.6,59.0,48,30.20,10.0,South,5.8,-,N/A,,Clear,170,2013-04-09 16:55:00
1:15 PM,80.6,59.0,48,30.19,10.0,SSE,4.6,-,N/A,,Partly Cloudy,160,2013-04-09 17:15:00
1:35 PM,80.6,59.0,48,30.18,10.0,SW,6.9,-,N/A,,Partly Cloudy,230,2013-04-09 17:35:00
1:55 PM,80.6,57.2,45,30.18,10.0,SSE,4.6,-,N/A,,Clear,150,2013-04-09 17:55:00
2:15 PM,80.6,59.0,48,30.17,10.0,West,6.9,-,N/A,,Clear,260,2013-04-09 18:15:00
2:35 PM,82.4,57.2,42,30.16,10.0,SSW,4.6,-,N/A,,Clear,210,2013-04-09 18:35:00
2:55 PM,82.4,57.2,42,30.16,10.0,SW,3.5,-,N/A,,Clear,220,2013-04-09 18:55:00
3:15 PM,80.6,55.4,42,30.15,10.0,SSE,4.6,-,N/A,,Partly Cloudy,160,2013-04-09 19:15:00
3:35 PM,80.6,55.4,42,30.14,10.0,SW,8.1,-,N/A,,Partly Cloudy,220,2013-04-09 19:35:00
3:55 PM,80.6,55.4,42,30.13,10.0,Calm,Calm,-,N/A,,Partly Cloudy,0,2013-04-09 19:55:00
4:15 PM,80.6,57.2,45,30.13,10.0,SSE,3.5,-,N/A,,Scattered Clouds,160,2013-04-09 20:15:00
4:35 PM,82.4,57.2,42,30.12,10.0,South,6.9,16.1,N/A,,Scattered Clouds,180,2013-04-09 20:35:00
4:55 PM,80.6,55.4,42,30.12,10.0,SW,3.5,-,N/A,,Partly Cloudy,220,2013-04-09 20:55:00
5:15 PM,80.6,55.4,42,30.12,10.0,SW,4.6,-,N/A,,Partly Cloudy,220,2013-04-09 21:15:00
5:35 PM,82.4,53.6,37,30.11,10.0,SSW,8.1,-,N/A,,Clear,210,2013-04-09 21:35:00
5:55 PM,82.4,55.4,39,30.12,10.0,SSW,3.5,-,N/A,,Partly Cloudy,200,2013-04-09 21:55:00
6:15 PM,80.6,53.6,39,30.12,10.0,SW,4.6,-,N/A,,Clear,220,2013-04-09 22:15:00
6:35 PM,80.6,55.4,42,30.12,10.0,SW,4.6,-,N/A,,Clear,220,2013-04-09 22:35:00
6:55 PM,78.8,55.4,44,30.12,10.0,SW,4.6,-,N/A,,Clear,220,2013-04-09 22:55:00
7:15 PM,77.0,55.4,47,30.12,10.0,Calm,Calm,-,N/A,,Clear,0,2013-04-09 23:15:00
7:35 PM,75.2,57.2,53,30.12,10.0,Calm,Calm,-,N/A,,Clear,0,2013-04-09 23:35:00
7:55 PM,73.4,59.0,61,30.12,10.0,Calm,Calm,-,N/A,,Clear,0,2013-04-09 23:55:00
8:15 PM,69.8,59.0,68,30.13,10.0,Calm,Calm,-,N/A,,Clear,0,2013-04-10 00:15:00
8:35 PM,66.2,62.6,88,30.13,10.0,Calm,Calm,-,N/A,,Clear,0,2013-04-10 00:35:00
8:55 PM,66.2,60.8,83,30.14,10.0,Calm,Calm,-,N/A,,Clear,0,2013-04-10 00:55:00
9:15 PM,64.4,60.8,88,30.14,10.0,Calm,Calm,-,N/A,,Clear,0,2013-04-10 01:15:00
9:35 PM,64.4,60.8,88,30.14,10.0,Calm,Calm,-,N/A,,Clear,0,2013-04-10 01:35:00
9:55 PM,62.6,60.8,94,30.14,10.0,Calm,Calm,-,N/A,,Clear,0,2013-04-10 01:55:00
10:15 PM,60.8,60.8,100,30.14,10.0,Calm,Calm,-,N/A,,Clear,0,2013-04-10 02:15:00
10:35 PM,60.8,60.8,100,30.14,10.0,Calm,Calm,-,N/A,,Clear,0,2013-04-10 02:35:00
10:55 PM,59.0,59.0,100,30.13,10.0,Calm,Calm,-,N/A,,Clear,0,2013-04-10 02:55:00
11:15 PM,59.0,59.0,100,30.12,10.0,Calm,Calm,-,N/A,,Clear,0,2013-04-10 03:15:00
11:35 PM,59.0,59.0,100,30.12,10.0,Calm,Calm,-,N/A,,Clear,0,2013-04-10 03:35:00
11:55 PM,59.0,59.0,100,30.11,10.0,Calm,Calm,-,N/A,,Clear,0,2013-04-10 03:55:00